Wind_Speed
12 11 11 10 10 10 9 9 8 7 7 7 6 6 8 9 10 9 8 9 10 11 12 14 15 16 18 19 19 18 18 18 18 17 17 17 17 18 19 18 19 19 19 20 20 20 20 20 20 20 19 17 18 18 18 19 18 16 15 15 16 18 20 18 12 9 11 13 12 14 17 19 21 24 26 28 27 27 30 35 37 38 38 38 39
10 9 9 8 8 9 9 9 8 5 5 6 7 8 9 9 9 9 10 11 12 13 15 16 17 19 21 22 21 20 20 19 19 19 19 18 18 19 20 20 20 19 19 20 21 21 22 21 22 23 22 19 19 18 18 19 18 17 17 16 16 17 17 17 14 8 6 8 9 10 13 17 22 26 27 28 29 28 30 33 35 37 38 38 39
9 8 8 8 8 9 9 8 6 6 8 9 9 7 8 10 10 11 12 12 13 16 17 18 17 18 21 23 22 20 20 19 20 21 20 20 21 20 21 22 21 20 20 20 21 21 22 22 23 25 25 23 22 20 18 19 18 17 18 18 16 18 17 13 11 6 3 4 6 9 11 14 19 24 24 26 28 28 29 33 35 36 38 38 39
9 9 9 9 9 9 8 7 8 9 10 9 9 8 10 12 12 13 13 13 14 15 16 17 16 15 18 20 19 18 18 17 18 19 20 20 20 20 21 22 20 19 19 19 21 22 23 23 24 26 27 27 26 24 21 20 19 17 17 17 16 17 16 13 10 8 6 6 7 10 12 12 14 16 18 21 25 26 28 30 33 35 37 38 39
9 8 8 8 8 8 8 9 9 9 8 8 10 10 11 12 12 12 12 13 14 14 14 15 16 16 17 17 17 18 17 17 17 18 18 18 17 17 18 19 19 19 20 21 23 23 22 23 23 26 29 31 31 29 26 23 21 19 17 17 16 15 15 13 12 11 10 9 9 10 12 13 13 13 14 17 21 22 25 29 31 34 36 38 38
7 7 7 7 9 9 9 8 7 7 8 9 11 11 11 12 12 12 12 13 13 13 14 15 14 15 15 15 16 17 16 16 16 16 16 16 17 16 16 17 18 20 22 23 23 25 24 23 24 26 30 32 31 31 30 27 25 23 21 19 17 15 14 14 12 11 11 11 10 10 11 12 13 14 14 16 19 19 22 26 30 34 35 36 36
8 8 8 8 9 9 8 8 7 8 9 10 11 11 11 11 11 11 12 13 13 13 14 14 14 14 15 15 15 16 16 16 15 16 18 20 20 19 18 20 21 22 24 21 22 29 30 27 26 26 28 31 31 31 32 31 30 30 27 23 20 17 15 14 13 11 11 12 10 10 11 11 12 13 13 13 15 18 21 23 26 30 33 34 35
8 8 8 9 9 9 8 8 8 9 9 10 10 11 11 11 11 11 12 13 14 13 13 14 14 13 15 18 17 16 20 22 19 19 23 26 26 25 26 28 28 28 29 27 26 30 31 29 28 27 27 30 32 32 32 31 33 35 35 31 26 23 20 19 16 13 12 13 11 11 12 12 12 13 14 12 12 17 23 23 23 26 29 31 32
8 9 9 9 9 8 8 8 8 9 9 9 10 11 11 11 11 11 12 13 13 13 14 17 18 17 21 25 24 23 27 28 25 24 26 28 29 30 32 33 33 32 33 34 33 33 33 30 28 27 27 29 31 33 33 34 36 36 37 37 32 27 24 24 23 20 17 16 16 15 14 13 13 13 14 13 13 17 20 21 20 21 24 25 27
9 10 9 9 9 8 8 8 8 9 9 9 10 10 10 11 11 12 13 13 13 16 20 24 26 25 26 28 28 29 30 28 25 25 26 28 29 30 32 33 34 33 32 33 33 34 34 32 27 27 28 26 27 31 34 36 38 38 40 41 38 32 27 25 26 25 22 19 20 20 17 16 19 20 17 15 14 14 14 16 18 17 17 16 17
11 10 10 11 11 9 9 9 9 9 10 10 10 10 11 12 12 13 13 13 16 23 27 28 28 27 27 28 29 29 28 26 25 25 26 28 30 30 30 31 32 33 31 30 30 30 32 32 31 32 31 25 22 26 30 33 35 38 41 43 42 40 34 28 25 26 24 22 23 24 20 19 23 25 22 22 22 19 15 13 15 17 16 12 10
12 11 12 13 13 13 13 12 11 11 10 10 11 12 12 13 13 15 17 20 24 28 29 29 29 28 28 28 28 28 27 25 26 26 27 29 31 31 30 29 29 30 30 29 30 29 30 32 34 36 34 29 24 21 23 27 30 32 36 40 43 43 41 36 29 26 25 25 25 27 25 23 26 28 25 24 23 20 19 18 15 13 14 15 14
13 12 13 14 14 15 16 16 16 15 13 12 12 12 14 17 20 23 26 28 29 30 31 31 31 30 29 29 28 27 26 26 26 27 29 30 32 33 31 29 28 28 28 28 30 31 30 29 33 36 35 33 31 25 20 22 26 29 31 34 37 40 41 40 36 31 28 27 28 29 28 25 26 29 29 26 23 20 18 17 17 14 11 15 18
13 12 12 13 14 15 17 19 20 20 19 19 19 19 22 25 27 28 29 30 30 31 32 32 33 32 31 31 30 29 27 26 26 28 29 31 32 32 31 30 29 28 28 29 30 32 31 29 29 33 35 34 33 30 24 21 22 27 29 29 31 34 38 38 35 33 31 30 30 29 30 31 31 32 32 29 25 21 19 17 16 15 14 15 18
12 11 12 13 14 16 18 20 21 22 23 24 25 26 27 28 28 29 30 31 31 32 32 33 33 33 33 32 32 31 29 27 27 28 29 31 31 31 30 29 29 29 29 30 32 34 34 32 30 33 36 35 33 31 27 22 21 24 26 26 26 29 34 36 34 32 31 32 33 32 34 36 37 37 36 34 31 26 23 23 23 19 16 13 15
12 13 14 14 16 18 20 22 24 24 25 26 27 28 28 29 29 30 31 32 32 32 32 33 32 32 32 33 33 32 29 27 26 26 28 30 29 27 27 26 26 28 28 28 32 37 37 35 33 34 36 36 33 32 30 25 23 23 24 24 24 24 27 30 33 32 31 32 33 33 34 35 37 38 38 37 35 32 32 34 33 29 24 14 8
15 15 15 15 18 20 21 24 25 25 26 27 28 28 29 29 30 30 32 32 32 32 32 31 31 31 32 32 32 31 29 27 26 25 26 28 26 23 23 23 23 25 27 25 28 34 38 37 35 35 37 36 34 34 33 29 25 24 24 23 24 24 23 24 28 31 32 32 33 33 34 34 35 36 37 38 38 38 40 38 32 29 26 15 8
17 17 18 18 20 22 23 25 26 26 27 27 28 29 29 30 30 30 31 32 31 31 31 31 31 31 31 31 31 30 29 27 27 26 26 27 26 21 20 23 22 22 24 25 25 29 34 37 37 35 35 35 35 36 37 34 28 25 24 24 25 26 24 22 23 25 28 31 32 33 36 37 36 36 35 36 38 40 40 35 28 27 26 18 14
19 19 19 19 21 23 24 25 26 27 28 28 29 30 29 29 30 30 30 31 30 29 29 30 31 30 30 29 29 29 28 26 26 26 26 27 27 22 19 22 23 21 21 23 25 27 30 33 35 35 33 34 35 37 39 38 33 28 25 24 24 25 23 22 22 22 23 27 29 29 32 34 35 36 36 35 36 38 37 34 32 31 26 21 19
20 20 20 20 22 23 24 25 26 28 29 29 30 30 29 29 29 30 30 29 28 28 28 29 30 29 28 28 28 28 27 25 25 25 25 26 28 26 22 21 21 21 20 21 23 24 26 30 33 34 33 33 35 36 38 39 37 33 29 26 24 22 20 20 23 22 21 24 26 26 27 28 29 32 34 33 33 33 34 34 34 32 27 24 22
21 20 21 22 23 23 25 26 27 28 28 29 29 29 29 29 29 29 28 27 27 27 26 26 27 27 27 27 27 26 25 24 23 23 23 24 26 27 27 24 20 19 20 21 22 23 24 28 31 32 32 33 34 35 36 37 37 37 34 30 28 25 21 20 22 23 21 23 26 26 26 26 26 28 30 30 29 28 29 30 31 32 29 26 24
21 21 22 22 23 25 26 26 27 27 27 27 28 28 28 28 28 28 27 26 26 25 23 21 22 23 24 25 25 24 23 22 22 22 22 22 23 24 26 26 23 22 22 22 23 24 25 27 29 30 30 32 33 34 35 36 36 36 35 33 33 31 25 21 21 23 23 25 27 28 27 26 25 26 27 28 27 27 27 27 27 29 29 25 22
22 22 23 24 24 25 26 26 26 27 26 26 27 28 28 27 27 26 25 24 23 22 20 19 19 20 20 20 21 22 22 21 20 20 20 21 22 23 23 24 25 26 26 25 25 26 27 27 27 28 29 31 32 33 34 35 34 34 35 35 35 32 26 22 22 23 23 24 26 27 26 25 24 25 25 26 26 26 27 25 23 26 30 28 23
23 23 24 25 25 26 26 26 25 25 25 26 27 28 27 26 26 25 23 20 20 19 18 17 18 17 17 16 17 19 20 20 20 19 19 20 21 23 23 23 24 26 27 27 27 27 27 26 25 26 28 30 32 32 33 33 33 33 34 36 36 34 29 24 24 24 24 25 25 25 25 25 24 23 23 22 23 24 26 25 23 23 27 30 29
24 24 25 25 25 26 25 25 25 24 25 26 27 27 26 25 23 22 20 18 18 17 16 16 16 16 15 15 15 16 18 19 20 20 20 20 21 22 23 24 24 26 27 28 27 26 25 25 26 27 29 30 32 33 33 32 31 32 34 35 36 35 31 27 25 24 24 25 24 23 24 24 23 23 22 21 21 23 24 25 24 22 22 27 31
26 25 25 25 25 25 25 25 24 24 24 25 26 26 25 24 22 19 18 16 16 16 15 14 14 14 14 14 14 15 16 17 18 18 19 21 22 23 24 25 25 27 28 27 27 27 27 28 30 30 31 32 34 35 34 33 32 32 33 35 35 35 33 30 28 25 24 23 23 23 23 22 22 23 23 22 21 23 23 24 24 24 23 23 26
26 26 26 26 25 25 25 25 24 24 24 25 25 24 23 23 20 17 15 15 14 14 14 13 13 13 13 12 12 13 14 16 17 17 17 18 19 21 23 24 25 26 26 26 27 28 28 29 31 32 33 33 33 34 35 36 36 35 34 33 33 33 32 32 31 29 26 23 22 23 22 21 22 23 23 22 22 22 22 22 24 24 23 23 24
27 27 26 26 26 25 25 25 25 25 25 25 24 23 22 21 19 17 15 14 13 13 13 12 12 11 10 10 11 12 13 15 18 18 18 17 17 18 20 22 22 23 23 24 24 25 25 26 28 29 31 32 31 30 31 33 35 36 36 34 31 30 31 32 33 33 30 27 26 26 24 23 23 23 22 22 23 23 21 21 22 23 23 24 25
27 27 27 26 26 26 25 26 26 26 26 25 24 23 22 21 20 19 18 16 15 14 13 13 12 11 10 10 10 11 12 14 16 17 17 18 18 18 18 19 19 19 20 21 20 20 21 24 25 25 25 27 27 26 27 29 30 32 35 35 32 30 30 31 31 32 32 30 29 29 27 24 24 24 23 22 22 23 24 22 20 22 24 25 25
27 27 27 27 27 27 26 26 26 26 26 25 24 23 21 20 19 18 18 17 16 15 15 14 13 12 12 12 12 12 13 14 15 15 16 16 17 17 17 17 17 16 19 21 20 19 19 21 21 20 20 22 23 22 23 25 27 27 29 32 33 32 30 30 30 30 32 31 30 30 29 26 23 23 24 22 20 22 25 23 19 19 23 25 24
27 26 27 27 27 27 27 27 27 26 25 24 23 21 20 19 18 17 17 16 15 15 15 15 14 13 13 13 14 14 14 14 14 16 17 16 17 16 16 16 16 16 19 22 21 18 18 18 18 18 18 19 20 19 19 21 23 23 23 26 31 31 30 30 30 29 30 30 30 30 29 26 23 22 22 21 20 20 23 22 20 19 20 22 23
29 27 27 28 28 28 28 27 27 26 25 23 21 18 18 18 17 17 17 16 15 15 15 14 14 14 13 13 14 14 13 14 15 16 17 18 18 18 18 17 17 18 22 23 19 16 16 15 16 16 17 17 17 17 18 18 19 19 20 21 24 26 27 28 29 28 28 29 29 29 30 27 23 21 20 20 20 21 22 22 21 19 18 18 20
31 30 30 29 28 28 28 27 26 25 24 22 19 16 15 16 16 16 16 15 14 14 14 13 13 13 14 15 15 15 15 15 16 17 18 18 19 19 20 20 20 21 23 21 17 15 15 14 15 15 15 16 16 16 17 17 17 17 18 18 18 21 24 26 27 28 28 28 26 27 28 27 24 20 19 19 19 19 21 22 21 20 18 17 17
31 32 32 31 29 27 26 26 25 23 22 21 18 15 15 15 16 16 15 14 13 13 13 12 12 13 14 15 16 16 16 16 17 17 18 18 19 20 21 21 22 23 23 20 15 14 13 13 14 14 14 15 15 15 15 16 16 16 16 16 16 19 22 25 26 27 27 27 26 25 25 26 24 20 18 19 20 19 19 20 20 20 18 17 15
30 31 31 30 29 27 26 26 25 24 22 20 17 16 17 17 15 14 13 12 12 11 10 10 11 12 13 14 14 15 15 16 16 16 16 17 18 19 19 18 18 19 19 17 15 14 13 12 12 13 13 13 14 14 14 15 15 15 15 15 16 18 21 23 24 25 25 25 25 25 24 24 23 19 16 17 19 18 17 17 18 18 17 15 15
30 30 30 29 29 28 27 25 24 22 21 20 18 17 18 16 13 12 11 11 11 10 9 9 10 11 11 11 12 13 13 13 14 14 14 15 17 17 15 14 14 15 15 15 14 13 13 12 11 12 12 12 12 13 13 14 14 15 15 15 15 17 19 20 21 22 23 23 24 24 23 23 22 19 16 16 17 17 16 15 15 15 15 14 13
30 31 29 29 29 28 26 24 22 21 21 20 18 17 16 14 12 11 11 10 9 9 9 9 9 9 8 8 8 9 10 10 11 12 12 13 15 15 13 12 12 13 13 14 14 13 13 13 12 12 12 12 12 12 13 13 14 15 16 16 16 18 19 19 18 18 20 20 21 23 23 22 21 19 17 16 16 16 17 16 15 14 15 15 13
29 30 30 29 28 26 24 22 21 20 19 18 17 15 14 13 12 11 10 9 9 8 7 7 7 7 6 6 7 7 7 7 7 8 8 9 10 11 10 10 10 11 11 12 12 12 12 13 13 13 12 12 12 13 13 13 14 15 16 15 16 18 19 18 18 18 18 18 18 20 21 21 20 18 17 15 15 16 17 18 16 14 14 14 14
28 27 27 27 26 24 22 21 20 19 18 17 15 14 14 13 12 10 9 9 8 7 6 6 6 5 5 5 5 4 4 4 4 4 4 5 6 6 7 7 8 8 9 10 10 11 11 12 13 14 14 13 13 13 13 14 15 16 16 15 15 17 19 19 19 18 18 16 16 17 18 20 20 18 16 15 15 15 15 16 17 15 13 13 13
27 26 25 24 24 23 21 20 19 17 16 15 15 14 14 12 11 10 9 8 8 7 6 6 5 5 5 5 4 3 2 2 2 2 2 2 3 3 4 5 5 6 7 7 8 8 9 10 11 12 12 14 14 14 15 16 16 17 16 15 14 15 17 18 18 18 17 16 15 15 15 17 18 18 17 16 15 14 13 12 13 14 13 12 11
27 25 24 22 21 20 19 18 17 16 16 16 15 14 13 13 13 12 10 9 8 8 7 6 6 5 5 5 4 3 2 1 1 1 1 0 0 0 1 2 3 3 4 4 5 6 7 7 9 9 10 12 13 14 15 16 16 16 16 16 15 15 15 16 17 17 17 17 16 14 13 14 14 16 16 16 15 14 12 11 10 11 12 12 12
27 26 24 22 21 19 18 17 16 15 15 16 15 14 14 14 14 13 12 11 10 9 8 7 7 7 7 6 5 5 4 4 4 3 3 3 2 2 2 1 1 1 2 2 3 4 4 5 6 7 8 9 11 11 12 14 15 15 15 16 17 17 15 15 16 16 16 17 16 15 13 12 12 12 13 14 14 13 12 11 10 9 10 11 12
26 25 24 23 22 21 19 18 17 16 15 15 15 15 15 15 15 14 13 13 12 11 10 8 8 8 8 7 7 7 7 7 6 6 6 5 5 4 4 3 3 3 2 2 2 2 3 3 3 4 5 7 8 9 9 11 13 13 13 14 16 17 17 17 17 17 16 16 15 15 14 12 11 10 10 11 12 12 12 12 11 8 8 9 10
26 25 24 23 22 21 21 20 19 18 17 16 16 16 16 16 16 15 15 14 13 13 12 11 9 9 9 9 9 9 9 9 8 7 7 7 7 6 6 5 5 5 4 4 3 3 3 3 3 3 4 5 5 7 7 8 10 11 12 13 13 15 17 18 18 18 17 16 15 15 15 13 12 10 9 9 10 10 10 11 11 9 8 7 7
26 25 23 23 22 21 21 21 20 19 19 18 17 17 17 17 17 16 16 15 15 14 14 13 12 12 12 11 12 12 12 11 11 10 10 9 8 8 7 7 7 7 6 6 6 5 5 5 5 5 5 4 4 5 6 6 7 8 9 10 11 12 14 16 16 17 17 17 17 16 15 14 13 11 9 9 8 8 8 9 10 9 8 7 7
26 25 24 23 22 21 20 20 19 19 20 20 20 19 19 19 18 18 17 17 16 16 16 15 15 15 15 15 15 15 15 14 13 13 12 11 10 9 9 9 9 9 8 8 8 7 8 8 7 7 7 7 6 6 6 6 6 6 6 7 8 10 11 13 14 15 16 17 17 17 16 15 14 12 10 9 8 7 7 8 8 8 8 7 7
24 24 23 23 22 21 20 19 18 18 19 20 20 20 20 19 19 19 19 18 18 17 17 17 16 16 16 16 16 17 16 15 14 13 13 13 13 12 11 11 10 10 10 9 9 9 9 9 9 9 9 9 8 8 8 7 7 7 6 6 6 7 8 10 11 12 14 15 15 16 16 16 14 13 11 10 8 7 7 7 7 8 7 7 6
23 23 23 22 21 21 20 19 19 18 19 19 20 20 19 19 18 18 18 18 18 17 17 16 16 15 15 15 15 15 16 16 15 14 14 14 14 14 14 13 12 12 11 11 10 10 10 10 10 9 9 9 9 9 8 9 9 9 9 8 7 6 6 7 8 9 11 12 13 14 15 15 14 13 12 11 9 8 7 7 7 7 7 6 6
22 22 22 21 21 20 20 20 20 20 20 20 21 20 19 18 18 18 18 18 18 18 18 17 17 16 15 15 15 15 15 15 16 16 16 16 15 15 15 15 15 14 13 13 12 12 11 11 11 10 10 10 9 9 9 9 10 11 11 10 9 8 8 8 8 8 8 9 11 12 12 13 13 13 13 12 11 9 7 7 7 7 6 6 6
22 21 21 21 21 21 20 20 20 20 20 20 21 21 21 20 20 20 19 19 19 19 19 19 19 19 18 18 18 17 17 17 17 17 16 16 16 16 16 16 16 16 16 15 14 13 13 13 13 13 12 12 11 11 11 11 11 11 12 12 12 11 10 10 9 9 9 9 9 10 10 11 12 12 11 11 10 9 8 7 7 7 6 6 6
21 20 20 21 21 21 21 21 21 21 20 21 21 22 22 22 22 22 22 22 21 21 21 21 21 21 21 20 20 20 19 19 18 18 18 18 18 17 17 17 17 17 18 17 16 15 15 15 15 15 15 14 14 14 14 13 13 13 12 12 13 13 13 12 12 11 11 11 10 10 10 10 10 10 10 10 9 8 8 8 8 7 6 6 6
Wind_Direction
78 76 75 70 68 67 61 51 40 33 39 46 49 56 54 47 40 35 34 35 32 31 34 36 36 35 36 38 40 39 37 36 31 23 19 19 19 18 17 15 16 16 14 14 14 11 9 8 7 5 2 358 356 354 352 349 343 337 336 328 310 290 267 245 242 254 237 227 234 234 230 230 228 228 227 226 226 225 223 223 224 224 222 222 222
70 68 66 65 67 66 56 44 36 44 70 72 65 60 57 51 46 49 51 47 47 47 48 48 48 47 46 45 44 42 39 35 31 29 27 25 23 22 21 21 21 19 16 14 12 11 12 11 9 8 6 4 2 359 357 357 354 347 344 341 332 322 299 262 244 250 243 231 241 247 242 238 235 232 228 225 225 224 224 225 226 227 225 223 222
74 73 72 74 72 60 50 50 63 83 90 85 76 66 60 59 56 58 60 58 59 59 58 58 56 52 50 49 47 45 42 38 38 39 38 37 37 34 33 32 27 23 20 15 12 12 13 14 12 9 8 7 6 3 1 1 358 354 351 348 342 340 329 296 263 258 268 254 250 253 253 249 242 235 228 225 225 223 223 226 228 228 226 224 222
80 79 78 77 67 56 61 79 86 86 84 82 79 74 70 69 64 63 66 67 66 64 61 59 54 50 50 49 46 44 41 39 40 43 44 44 44 40 37 35 31 28 26 22 20 20 19 18 16 14 13 12 10 7 4 4 4 358 354 352 348 347 343 328 305 294 291 280 270 264 260 258 253 243 235 231 228 226 225 226 227 225 224 224 223
74 75 72 67 65 71 86 87 80 84 88 83 80 80 78 76 72 70 70 68 66 62 58 57 53 50 49 46 44 45 43 40 38 40 43 42 42 41 38 37 36 36 37 34 31 28 25 23 22 21 21 20 17 14 9 6 8 5 359 356 353 347 347 343 326 308 293 283 280 274 265 263 262 255 246 241 237 234 231 228 227 225 222 222 222
71 77 76 77 85 93 93 83 83 96 94 87 86 87 85 82 78 75 72 67 65 61 59 57 53 50 48 45 45 44 42 43 41 39 40 41 43 44 40 39 39 39 40 38 35 35 34 31 31 30 28 27 25 22 20 17 13 11 7 4 0 351 347 347 338 322 308 299 294 288 280 271 265 259 252 247 243 242 239 233 228 225 221 218 218
84 87 88 91 93 96 93 88 93 95 89 90 94 91 88 85 79 77 74 70 67 62 58 57 55 53 50 47 47 44 45 48 45 42 48 51 50 47 43 44 42 39 39 37 37 41 42 37 35 34 32 32 31 28 28 26 23 22 19 14 13 11 5 358 349 337 323 315 307 300 296 283 268 264 264 263 259 252 244 234 225 222 219 215 213
91 93 98 95 92 97 101 96 92 90 90 94 96 93 91 87 82 80 77 73 68 61 56 56 56 55 55 55 54 51 53 56 56 57 60 61 58 54 52 52 50 45 44 43 41 42 42 40 38 39 39 38 37 36 35 34 33 31 29 27 25 24 25 25 16 0 341 329 323 318 310 295 279 274 274 276 271 255 244 233 222 217 213 212 212
95 101 102 98 98 103 105 99 91 90 93 93 92 92 89 84 80 76 73 70 65 59 60 66 67 64 64 64 63 60 60 61 63 67 67 65 63 60 59 57 55 52 50 49 47 45 45 43 39 41 46 46 43 44 45 44 42 39 37 36 33 29 29 33 32 27 19 11 6 1 348 331 321 311 295 279 269 259 244 229 224 221 212 208 210
101 104 104 107 111 106 99 97 95 94 93 91 90 88 84 81 78 74 71 68 65 67 72 74 74 71 69 68 66 65 64 63 65 68 70 69 66 62 59 57 55 52 49 47 45 44 45 44 40 39 44 46 44 46 49 50 49 48 47 45 43 38 33 33 35 36 36 34 27 23 19 10 5 2 352 338 321 299 264 231 224 221 210 204 206
106 107 112 121 123 114 103 99 97 96 94 91 90 87 85 82 77 74 73 71 73 77 78 77 75 74 72 70 68 66 65 64 65 67 69 69 68 63 59 56 54 51 47 43 41 40 40 41 41 41 42 42 41 42 47 50 51 51 52 52 52 49 45 39 36 37 39 39 33 29 26 16 9 9 6 359 351 338 318 281 245 218 202 200 203
116 119 124 130 131 125 120 111 103 98 94 92 92 89 86 82 79 80 81 82 82 81 79 78 76 75 74 73 70 68 66 66 67 67 67 68 67 65 60 56 53 50 48 44 42 41 40 39 42 43 43 46 46 41 40 45 50 51 51 53 55 56 55 52 48 43 40 41 39 34 28 17 10 11 9 3 354 344 338 325 293 248 212 207 211
120 121 125 132 133 128 123 117 111 107 102 99 97 93 92 91 90 90 89 87 85 83 81 79 77 76 75 74 72 70 68 68 69 69 69 69 68 66 63 59 55 51 48 46 44 43 42 39 41 42 42 45 49 44 36 39 48 52 52 52 53 55 57 57 56 54 50 47 45 38 31 25 17 16 17 14 6 355 347 338 319 295 255 229 226
121 120 123 130 130 126 122 118 115 112 110 108 105 102 100 98 96 95 92 90 88 84 82 80 78 76 75 73 72 70 69 69 71 71 71 70 68 67 64 60 57 54 51 48 45 44 43 40 39 40 41 43 47 46 40 35 43 49 50 49 49 50 53 53 52 53 53 52 51 44 39 35 30 28 29 29 25 14 3 358 348 326 297 266 245
122 123 123 126 128 125 121 119 116 114 112 109 107 105 102 100 98 96 94 92 89 86 83 81 79 78 76 74 72 70 68 68 70 72 72 70 68 66 64 61 58 56 53 50 49 48 47 45 42 41 42 43 45 48 46 39 40 45 46 46 46 47 49 50 51 52 52 53 53 50 46 43 40 38 37 36 36 32 28 27 22 7 340 302 259
125 127 127 128 129 127 123 121 118 115 112 110 108 106 104 102 99 97 95 93 90 88 85 82 80 78 76 74 71 68 65 64 66 68 70 70 67 64 63 61 58 57 54 51 51 51 51 50 47 45 44 43 43 47 48 44 42 44 44 44 44 43 44 48 52 55 54 52 51 50 47 46 44 42 39 37 36 35 36 35 31 24 15 353 297
134 134 132 131 131 129 126 124 120 116 114 112 109 107 105 104 101 98 96 93 89 87 85 83 81 79 76 73 70 67 63 60 61 63 67 70 67 62 61 61 58 57 56 53 52 52 52 52 51 49 47 45 43 45 48 46 43 42 42 42 42 41 39 40 45 49 50 48 47 45 43 41 40 38 37 37 35 36 37 34 26 25 28 18 346
140 139 137 136 135 132 128 126 123 119 117 114 112 110 108 106 103 100 97 94 91 88 86 84 82 79 76 73 71 68 64 60 59 60 63 68 67 61 59 61 59 56 55 55 53 52 52 52 53 52 50 48 46 47 50 49 44 41 40 40 41 40 35 32 34 37 41 42 42 41 40 38 37 35 34 35 35 38 41 36 27 28 33 28 12
143 144 141 140 138 134 131 128 125 122 119 117 114 112 110 107 104 102 99 95 93 90 88 86 83 80 77 74 71 70 66 61 58 58 59 64 66 64 60 60 59 57 55 55 54 53 52 51 53 54 53 52 50 50 52 52 49 44 41 40 41 38 33 29 29 30 32 35 36 37 36 36 36 34 33 34 35 37 40 38 34 34 32 28 25
145 146 143 142 139 136 133 130 127 124 121 119 116 114 111 109 107 104 100 97 94 91 89 86 84 80 77 73 71 69 67 62 58 58 58 60 64 65 63 60 58 57 56 55 52 51 50 50 52 54 54 54 53 52 52 53 52 49 46 42 38 34 29 29 31 31 31 32 32 32 32 32 32 32 32 33 33 34 36 36 35 35 32 27 27
145 144 143 142 140 136 134 131 128 125 123 121 118 116 114 112 109 105 102 99 96 93 89 86 83 80 76 74 71 68 67 65 61 58 58 58 60 64 65 64 61 59 58 57 54 52 50 50 52 54 54 54 54 53 52 52 52 52 49 46 44 41 36 32 32 33 34 34 34 33 32 31 30 30 30 32 33 33 34 35 36 36 35 30 24
144 143 142 140 138 136 133 131 129 127 125 123 120 117 116 114 110 107 104 101 97 93 89 86 83 79 76 74 72 69 67 65 62 60 58 57 58 61 65 67 67 64 62 59 56 54 54 54 54 54 55 55 55 54 53 53 53 53 51 50 49 47 42 36 34 34 34 35 36 35 33 32 31 30 30 32 33 33 33 36 39 41 40 38 34
144 143 141 139 137 135 133 132 131 129 128 125 122 119 117 114 111 109 105 100 96 92 88 86 84 81 77 73 70 69 66 63 62 61 61 60 61 63 66 68 69 68 66 63 60 60 59 59 57 56 57 57 56 54 54 54 53 52 51 50 49 47 42 37 35 34 33 34 36 35 34 33 32 31 32 33 34 33 34 37 41 44 44 41 39
145 144 142 139 136 135 134 133 133 131 129 127 124 122 119 115 112 110 104 99 96 93 89 86 84 82 80 74 68 66 64 62 61 64 65 64 65 67 68 68 69 71 70 67 65 64 63 62 60 60 60 59 57 55 54 53 52 51 50 49 48 47 43 37 35 35 35 34 33 32 32 33 33 32 32 32 32 32 34 38 40 43 46 44 43
146 144 142 139 138 136 135 135 134 132 131 129 126 124 120 116 113 109 103 99 98 95 90 88 86 84 81 77 70 65 62 61 61 64 67 66 67 69 70 71 72 74 75 73 70 70 69 67 65 64 62 60 57 55 53 52 52 51 49 49 49 47 43 38 36 35 35 34 31 29 31 34 36 37 36 34 33 33 34 37 37 38 40 43 44
147 144 142 141 140 138 137 136 134 133 133 131 128 125 121 117 113 109 105 102 99 97 94 90 88 86 82 80 74 67 62 59 58 60 62 63 67 72 75 76 78 79 78 77 76 74 72 70 67 64 62 60 58 55 53 52 52 51 49 49 49 49 46 41 38 35 34 32 30 28 30 33 36 38 38 37 36 34 34 34 34 34 34 36 40
147 145 144 143 142 141 139 137 135 134 133 130 128 124 121 117 114 110 109 105 100 98 95 91 89 88 84 81 77 70 62 57 54 55 57 59 64 71 76 79 80 79 77 77 76 74 70 68 66 64 62 59 56 53 52 51 50 49 48 49 51 51 48 46 43 41 37 32 30 30 29 31 36 37 37 38 37 35 34 34 35 35 33 35 39
149 147 146 145 144 143 141 138 136 134 132 130 128 125 122 119 115 112 110 106 102 99 95 90 88 88 85 82 77 71 64 58 56 57 61 64 66 70 74 76 77 77 77 76 73 70 66 63 61 58 56 54 51 48 47 46 46 46 47 48 50 50 49 47 45 44 42 38 36 34 30 30 35 37 38 39 38 37 37 38 39 39 36 36 40
150 148 148 147 145 144 142 139 138 135 133 132 129 127 125 122 118 114 108 103 101 100 99 96 91 87 84 81 78 77 73 67 63 63 67 70 73 74 76 77 77 78 78 76 71 63 58 55 52 49 47 47 45 44 42 42 42 44 45 46 47 47 46 44 41 41 42 41 39 37 34 31 32 36 40 42 40 41 44 43 41 43 43 42 42
150 149 149 147 146 144 142 140 139 137 134 133 130 128 128 125 119 114 108 103 101 100 100 100 97 93 90 87 85 88 85 78 73 73 74 75 76 77 78 78 77 76 74 72 67 60 54 52 48 45 44 43 42 41 40 40 40 40 41 43 45 45 44 43 42 42 43 43 42 40 38 35 32 35 40 43 41 41 45 45 42 44 47 48 47
150 150 150 149 148 146 143 141 141 139 136 135 132 130 129 126 119 115 110 105 102 102 100 99 97 96 96 95 92 90 87 83 81 80 81 80 79 79 77 75 73 72 70 67 63 57 54 51 48 45 43 42 41 39 38 38 38 37 37 40 43 44 43 43 44 44 44 44 43 42 41 38 34 34 38 42 42 40 40 42 42 45 49 51 52
152 151 152 151 149 148 145 143 142 141 139 138 135 131 130 126 121 116 112 107 105 105 103 101 97 93 93 96 98 97 94 90 87 85 84 83 81 79 77 74 71 69 69 67 62 56 52 50 47 44 42 40 39 37 37 37 35 35 35 35 37 39 39 42 45 46 46 44 43 43 42 40 36 34 34 38 40 40 39 40 42 44 47 51 55
156 154 154 151 149 148 146 144 143 142 141 140 137 133 131 129 124 121 118 113 109 107 107 106 101 95 93 96 99 101 99 95 91 88 87 84 82 79 77 74 71 68 68 66 61 56 53 50 47 44 41 40 39 36 36 36 35 34 35 33 33 35 38 41 44 46 47 45 42 42 42 41 38 34 32 34 37 38 40 40 41 43 45 47 52
158 157 156 153 150 148 147 147 146 144 144 142 140 136 133 130 127 127 127 123 119 114 112 111 108 102 100 100 99 99 98 96 94 92 88 85 82 78 74 70 66 64 65 64 61 56 53 50 47 44 42 41 39 36 35 34 33 33 34 33 33 35 38 40 42 44 45 43 40 39 39 39 39 35 32 33 35 36 38 39 39 42 45 45 47
158 157 157 155 152 151 150 150 149 147 146 144 141 137 134 132 130 131 133 133 130 125 120 120 119 114 108 104 101 98 97 96 95 93 90 86 82 77 72 67 62 60 61 61 60 57 54 50 47 44 42 41 39 37 35 33 32 31 32 32 33 35 37 38 39 41 42 41 38 37 36 37 38 36 31 33 34 33 34 35 35 37 41 44 47
156 156 156 157 156 154 153 151 150 149 148 146 142 139 137 136 136 139 140 139 136 133 131 131 130 125 118 112 106 101 97 96 94 92 89 85 79 75 71 66 64 61 60 59 59 57 53 50 48 45 43 41 38 36 35 34 33 34 35 34 34 37 39 39 36 38 41 40 38 37 35 35 39 40 36 34 35 33 30 31 32 33 34 38 44
157 157 158 159 159 157 154 154 153 152 149 146 143 141 141 142 145 146 147 147 145 141 141 142 140 135 130 125 119 110 104 99 94 90 87 82 77 74 72 69 67 65 62 59 58 55 52 49 48 46 44 42 40 38 37 36 35 37 39 39 38 39 42 40 37 37 39 38 36 37 36 35 40 44 41 37 36 35 32 30 31 31 31 33 38
159 160 161 162 162 159 158 158 157 156 154 152 150 151 152 154 155 153 153 157 159 155 152 155 155 148 141 140 137 126 116 107 98 89 83 78 74 71 70 69 68 67 65 61 58 55 53 51 50 50 49 46 43 41 40 38 37 39 41 41 39 40 41 40 37 38 39 36 34 35 35 35 38 42 41 37 35 35 34 33 32 31 31 33 36
162 163 164 165 165 164 164 164 164 164 163 162 163 168 169 168 168 168 167 168 170 170 168 168 166 158 152 154 154 145 132 119 106 97 87 77 72 68 66 66 66 66 65 62 57 55 54 53 53 54 53 51 48 45 42 41 41 41 41 39 37 38 39 38 36 37 38 36 34 33 33 35 37 38 37 35 36 35 33 32 33 33 32 32 31
164 165 167 169 170 171 172 173 173 174 175 176 179 182 183 183 182 183 183 185 185 185 186 185 180 175 172 171 171 170 164 134 112 114 109 84 72 65 60 61 62 62 61 59 55 54 53 52 52 54 54 53 52 50 47 45 43 42 40 38 37 37 38 38 38 37 36 36 34 33 32 34 36 36 35 36 37 35 30 28 31 33 33 31 25
167 168 169 172 175 176 178 179 180 182 185 187 189 190 192 193 194 194 196 198 199 200 204 205 201 197 195 192 193 199 210 217 205 202 224 240 277 25 38 49 53 55 57 55 51 49 50 51 50 51 52 53 52 50 47 45 43 41 39 37 37 36 35 35 36 36 36 35 32 30 29 31 33 35 36 37 38 34 29 28 30 32 35 34 30
172 172 173 175 177 179 181 183 184 187 190 192 194 195 196 198 200 202 205 207 209 212 215 216 216 216 215 215 220 229 239 248 253 258 262 261 263 270 277 288 314 355 29 37 37 37 39 42 46 47 47 48 48 46 43 41 40 39 37 36 37 36 34 33 33 33 34 33 30 27 26 27 28 30 31 34 37 36 32 33 32 30 33 36 34
178 178 180 182 184 186 188 190 191 193 195 196 196 197 197 200 203 206 209 213 216 218 221 224 225 225 227 231 234 239 246 252 256 260 261 261 265 267 266 267 273 280 296 326 352 2 6 10 18 27 32 34 35 36 36 36 37 37 34 33 34 34 33 32 31 31 32 31 29 27 25 24 24 23 22 25 30 33 32 33 33 30 30 33 33
184 185 187 189 191 193 196 197 199 201 201 201 202 202 202 205 209 213 216 220 223 226 230 233 235 237 241 245 246 247 250 252 253 257 260 261 264 265 263 262 266 270 277 287 293 303 321 326 324 337 355 4 10 14 18 23 28 30 30 29 29 29 30 30 30 29 30 30 29 27 25 24 23 21 16 16 21 24 25 26 29 30 29 27 27
191 190 191 194 196 198 200 202 205 207 208 209 210 210 211 213 216 219 223 227 231 235 239 243 247 250 254 256 257 258 259 258 256 257 259 261 263 264 262 260 263 265 268 273 276 278 284 289 295 306 318 322 325 335 346 355 4 13 20 23 24 24 26 27 28 28 29 29 29 27 25 24 23 19 15 15 16 16 16 18 20 23 25 24 22
194 193 195 197 198 199 201 204 208 212 215 217 218 218 218 221 224 227 232 235 240 244 249 253 257 260 261 261 261 262 262 262 261 260 260 260 261 261 260 260 261 262 264 267 270 273 275 278 281 287 293 297 299 299 302 314 327 339 352 5 12 17 19 21 23 25 26 27 28 28 27 26 25 21 18 19 18 14 12 13 12 12 15 17 16
195 195 196 198 199 201 205 208 211 215 219 222 224 225 226 227 230 234 239 242 246 250 253 256 260 264 266 266 264 262 260 260 260 261 262 263 262 261 260 259 259 262 264 265 265 268 271 274 276 279 282 285 288 288 285 285 290 299 312 326 340 354 4 9 14 17 19 20 23 25 26 26 25 21 20 22 20 15 14 11 6 4 4 4 6
195 195 197 199 201 204 208 210 213 218 222 226 229 231 232 233 235 237 240 243 245 249 252 256 261 266 268 268 266 262 259 257 257 259 262 262 261 260 260 258 258 262 265 266 266 265 265 265 267 271 276 278 277 278 279 275 274 279 286 293 302 316 332 345 355 2 6 10 14 17 21 23 23 21 19 19 17 15 12 6 1 360 358 355 357
197 198 199 201 204 208 212 215 220 224 227 230 232 234 236 238 239 239 241 244 246 249 253 257 261 265 266 265 264 263 261 258 256 257 258 259 260 261 261 259 258 259 261 264 266 264 262 260 259 262 268 271 270 268 269 270 270 272 275 278 283 291 299 310 323 334 344 352 359 4 8 13 16 17 18 17 17 14 8 356 349 347 344 343 347
200 202 204 207 210 215 220 224 228 231 232 233 234 236 238 240 241 242 244 247 249 253 257 261 263 265 264 263 263 263 262 260 258 258 259 260 261 262 262 261 259 258 258 261 263 262 261 259 258 257 259 264 265 264 266 267 267 269 271 273 276 281 285 290 298 306 314 325 336 345 351 357 4 8 9 11 13 14 10 1 354 347 334 327 329
205 207 211 214 217 222 226 229 232 234 235 235 235 236 237 239 242 244 247 250 254 258 263 266 269 269 268 265 263 263 263 262 261 260 261 261 262 263 264 262 261 260 259 259 260 260 260 259 258 257 257 259 261 263 265 266 266 268 269 271 273 275 278 281 285 289 295 302 309 318 327 335 344 351 355 357 360 1 2 3 1 354 339 329 326
Height
829 830 831 831 832 832 833 833 834 834 834 834 834 833 833 833 833 833 833 832 832 832 831 829 828 827 826 825 824 822 821 820 819 818 816 815 814 812 811 809 807 805 803 802 799 798 796 793 791 788 785 783 781 778 776 774 772 770 768 767 765 764 763 762 761 760 760 761 762 762 763 764 765 766 767 769 770 771 772 774 776 778 780 782 785
830 831 831 832 833 833 833 834 834 834 834 834 834 833 834 834 834 834 834 834 834 833 832 831 830 829 828 826 825 824 823 821 820 819 817 816 814 813 812 810 808 807 805 803 801 799 797 795 792 789 786 784 781 779 776 774 772 770 768 766 764 763 762 760 759 759 759 760 761 762 762 763 764 764 765 766 767 769 770 771 773 774 776 778 781
830 831 832 833 834 833 833 834 834 834 834 834 834 835 835 835 835 836 836 835 835 834 833 832 831 830 829 827 826 825 824 823 822 820 819 817 816 815 813 812 810 808 806 805 803 801 799 797 794 791 788 785 782 780 777 774 772 770 768 766 765 762 761 760 759 759 759 760 760 761 761 762 762 762 763 764 766 767 767 768 769 771 773 775 777
830 831 833 833 834 834 834 834 834 834 835 835 836 836 836 837 837 837 837 837 836 835 834 833 832 831 830 829 828 827 826 825 824 822 821 819 818 817 816 814 812 810 809 807 805 803 801 799 796 794 790 787 784 781 778 776 773 771 769 767 765 763 761 761 760 760 760 760 760 760 760 761 761 762 763 763 764 765 765 765 767 768 769 771 773
831 832 833 833 834 834 834 835 835 836 836 837 837 838 838 839 839 839 839 838 837 836 835 834 833 832 831 831 830 828 827 827 826 825 823 822 821 820 818 816 815 813 811 809 807 805 803 801 799 796 793 789 786 783 780 778 776 772 770 767 765 764 763 762 761 761 761 761 761 761 761 761 760 761 762 763 763 763 763 763 764 765 766 767 769
832 832 834 834 834 835 835 836 837 837 838 838 839 840 840 840 840 840 840 839 838 837 836 835 835 834 833 832 831 830 829 829 828 827 826 825 823 822 821 819 817 815 813 811 810 807 805 803 801 799 796 793 789 786 783 780 778 775 771 768 766 765 764 763 762 762 762 762 762 762 762 761 761 760 761 762 762 762 762 762 762 762 763 764 765
832 833 834 835 835 836 836 837 838 838 839 840 840 841 841 841 841 841 840 839 839 838 837 837 836 836 835 834 833 833 831 830 830 830 829 827 825 824 822 821 819 817 815 814 812 810 807 805 803 801 800 797 794 791 787 783 781 777 774 771 768 766 765 764 763 762 762 763 762 762 762 762 761 761 760 760 760 760 760 760 760 760 760 761 762
833 834 835 836 837 837 838 839 840 840 841 841 842 842 842 842 842 842 841 840 840 839 839 839 838 838 837 836 835 835 834 832 831 831 830 829 827 826 824 822 820 819 817 816 814 812 809 808 806 804 803 801 798 795 791 788 784 780 777 774 770 768 767 765 764 764 764 763 763 763 762 762 761 761 760 759 758 758 757 757 757 757 757 758 759
834 835 836 837 838 838 839 840 841 842 842 843 843 843 843 843 843 843 843 842 842 842 841 841 840 840 839 838 837 836 835 834 833 833 832 830 829 827 826 824 822 821 819 817 815 813 812 810 808 807 805 804 802 799 795 792 788 785 782 778 775 772 770 769 767 766 766 766 765 764 763 763 763 761 760 759 758 757 756 755 755 755 756 756 758
836 837 838 839 839 840 841 842 843 844 844 844 844 844 845 845 845 845 845 844 844 844 843 842 841 841 841 840 839 838 837 837 837 835 833 832 831 829 827 826 824 822 821 819 817 815 814 812 810 809 806 805 804 802 799 796 793 791 788 784 780 777 775 774 772 771 770 770 770 769 767 767 767 765 762 760 759 758 756 755 754 755 756 756 757
837 839 839 840 841 841 842 843 844 845 845 846 846 846 847 847 847 847 847 846 846 845 845 844 843 843 842 842 841 840 840 840 839 838 835 833 832 831 829 828 826 825 823 821 820 818 816 814 812 810 807 806 805 804 802 799 797 795 792 789 786 783 780 779 778 777 775 774 774 772 771 771 769 767 764 761 759 758 757 756 755 754 754 755 755
839 840 840 841 842 843 843 844 845 846 846 847 848 848 849 849 849 849 848 848 848 847 847 846 845 845 845 844 844 843 843 843 841 840 837 835 834 832 831 830 829 828 826 825 823 821 819 817 815 812 810 808 807 806 805 803 800 798 796 793 790 788 786 784 783 782 781 780 778 776 775 775 772 768 765 763 760 758 757 756 755 754 753 753 753
840 841 842 843 843 844 844 845 845 846 847 849 849 850 851 850 850 850 850 850 850 849 849 848 848 848 847 846 846 846 846 845 844 842 840 838 836 834 834 833 832 831 830 828 826 824 822 821 818 816 814 812 809 807 807 806 803 801 799 796 794 792 791 789 788 787 786 784 782 780 780 779 776 772 769 766 763 760 758 757 756 755 754 753 752
842 843 843 844 845 845 845 846 846 847 849 850 850 851 851 851 852 852 852 852 851 851 851 850 850 850 850 849 849 849 848 848 846 844 842 840 838 837 836 835 834 834 832 831 829 827 825 824 822 820 818 815 812 810 809 808 806 804 801 799 798 796 794 793 792 790 789 787 786 785 785 783 780 777 773 769 766 763 760 759 757 756 754 753 752
843 844 844 845 846 846 847 847 848 849 850 851 851 852 852 853 853 854 854 853 853 853 853 853 853 853 853 852 851 851 851 850 848 846 844 842 841 839 839 838 837 836 835 834 832 830 829 827 825 824 821 819 817 814 812 810 809 807 805 803 802 800 798 797 796 794 793 791 790 789 787 785 783 779 776 772 768 766 764 761 758 755 753 752 752
845 845 845 846 847 848 848 849 849 851 852 852 853 853 854 855 855 856 855 855 855 855 855 855 856 855 855 854 854 853 854 853 851 849 846 845 843 842 841 840 839 838 837 837 835 833 832 830 828 827 824 822 820 817 814 812 811 809 808 807 806 804 803 801 800 798 797 795 793 792 790 787 785 782 778 774 771 768 764 759 756 755 754 752 752
846 846 847 848 848 849 850 850 851 852 853 853 854 855 856 857 857 857 857 857 857 857 857 858 858 857 857 856 856 855 855 855 853 851 849 847 845 845 844 843 842 841 840 839 838 837 835 833 831 829 827 825 823 820 816 814 812 811 810 809 808 807 806 805 803 801 799 797 795 793 791 788 786 783 780 776 773 768 762 759 759 759 757 755 755
846 847 849 849 850 851 851 852 852 853 854 855 855 856 857 858 859 859 858 858 859 859 860 860 860 859 859 858 858 858 857 857 855 853 851 849 847 847 846 845 844 843 843 842 841 840 838 836 834 832 830 829 826 822 819 816 815 814 813 812 810 809 808 807 805 803 801 798 796 794 791 789 786 784 781 778 775 770 766 766 767 764 761 760 758
846 848 850 850 851 852 853 853 854 854 855 856 857 858 859 859 860 860 860 860 861 862 862 862 861 861 861 861 860 859 859 859 858 856 854 851 849 848 848 847 846 845 845 844 843 842 841 839 837 835 834 832 829 826 823 820 818 817 816 814 813 812 812 810 807 805 803 800 798 795 793 791 788 786 783 780 777 774 772 772 771 767 765 764 762
847 849 850 852 853 854 854 855 855 856 857 857 858 859 860 861 862 862 862 862 863 863 863 863 863 863 863 863 862 861 861 861 860 858 856 854 851 850 849 849 848 848 847 847 846 845 843 842 840 839 837 835 832 830 827 824 822 821 819 817 816 816 815 813 810 807 805 803 800 798 796 794 791 788 786 783 780 779 777 775 773 770 769 767 765
848 850 851 853 854 855 856 856 856 857 858 859 859 860 861 863 863 863 864 864 865 865 864 864 864 864 865 864 864 864 863 863 862 860 858 856 854 852 851 850 850 850 849 849 848 847 846 845 844 842 840 838 835 833 830 828 826 824 822 821 820 819 817 815 812 810 807 805 803 801 799 797 794 792 790 787 785 783 781 779 777 775 773 771 769
849 851 852 854 855 856 857 857 858 859 860 860 861 862 863 865 865 865 866 866 866 866 866 866 866 866 867 867 867 867 866 865 864 862 860 859 857 854 853 853 852 852 851 851 850 850 849 848 847 845 843 840 838 836 834 831 829 828 826 825 823 821 818 817 815 812 810 808 806 804 802 800 798 796 794 792 790 788 786 783 782 780 778 776 774
850 852 854 855 856 857 858 859 860 861 861 862 862 863 865 866 867 867 867 867 867 867 867 868 868 868 869 870 869 869 868 867 866 864 863 861 859 857 856 855 854 854 853 852 852 852 851 851 850 848 846 843 841 839 836 834 833 831 830 828 825 822 821 819 817 815 813 811 809 807 805 803 802 800 798 796 795 793 790 788 786 784 783 780 778
850 853 855 856 857 858 859 860 861 862 863 863 864 865 867 868 868 868 869 869 868 869 869 869 869 870 871 872 872 871 870 869 868 866 864 863 861 860 859 857 856 855 855 855 855 854 854 853 852 850 848 845 843 841 839 837 836 834 832 830 827 825 823 822 820 818 816 814 812 810 809 808 806 804 802 801 799 796 795 793 791 789 787 785 782
851 854 856 856 858 859 860 862 863 863 864 865 866 867 868 869 870 870 870 870 870 870 871 871 872 873 873 873 873 873 872 871 870 868 866 865 863 862 861 860 859 858 857 857 857 857 856 855 854 852 850 848 846 843 841 840 839 837 835 832 830 828 827 825 824 822 819 818 816 814 813 812 810 808 806 804 802 800 798 796 795 793 791 789 786
852 855 856 857 859 860 861 863 864 864 866 866 867 869 870 870 871 871 872 872 872 872 872 873 874 874 875 875 875 874 874 873 871 870 868 867 865 864 863 862 861 861 860 860 860 859 858 856 855 853 852 850 848 846 844 843 841 839 837 835 833 832 831 829 827 825 824 823 821 819 817 816 814 812 809 807 805 803 801 800 798 797 795 793 791
852 855 857 858 860 861 862 864 864 865 867 868 869 871 871 872 872 873 873 874 873 873 874 875 875 876 876 876 876 875 875 874 872 871 870 869 868 867 866 865 864 863 863 862 862 861 860 858 857 855 854 852 850 849 847 845 843 841 840 838 837 836 835 834 832 830 828 827 825 823 821 819 817 815 812 810 808 807 805 804 802 801 800 798 796
852 855 857 859 861 862 863 864 865 866 868 869 871 872 873 874 874 875 875 875 875 875 876 876 877 877 877 877 877 877 876 875 874 873 871 871 870 869 868 868 867 866 865 864 864 863 861 860 858 857 855 854 852 851 850 848 846 845 843 842 841 840 839 837 835 834 832 831 829 827 824 822 820 818 816 814 812 811 809 807 806 805 804 802 801
853 856 858 859 861 863 864 865 866 867 869 871 872 873 875 875 876 876 876 876 876 877 877 878 878 879 878 878 878 878 878 877 876 875 874 873 872 871 870 870 869 868 867 866 865 864 862 861 860 858 857 856 855 854 853 852 850 849 847 845 844 843 841 840 838 837 836 834 832 830 828 825 823 822 820 818 817 815 813 811 810 809 808 807 806
854 856 858 860 862 863 865 866 867 869 870 872 873 874 876 877 877 877 878 878 878 879 879 879 880 880 880 880 879 879 879 878 877 877 876 875 874 873 872 872 871 870 869 867 865 865 864 863 862 861 860 859 858 857 856 855 854 852 851 849 848 846 845 843 842 842 840 838 836 834 832 829 827 825 824 822 821 819 817 815 814 813 812 812 812
854 857 859 861 862 863 865 867 868 870 871 873 874 875 876 878 879 879 879 880 880 881 881 881 881 881 881 881 880 880 880 879 879 878 877 876 875 875 874 873 872 871 869 867 866 866 866 865 864 864 863 862 861 860 859 858 857 856 854 853 851 849 848 847 846 845 843 841 840 838 835 834 832 830 828 827 825 824 822 820 819 818 817 817 817
854 857 859 861 863 864 866 867 869 871 872 874 875 876 877 878 879 880 881 882 882 882 883 883 883 883 882 882 882 881 881 881 880 879 878 878 877 876 875 874 873 872 870 869 868 868 868 867 867 866 866 865 864 863 862 861 860 859 857 856 854 853 852 850 849 848 846 844 843 841 839 837 836 834 832 831 829 828 826 824 823 822 822 821 821
853 856 858 861 863 865 866 868 870 872 873 874 875 876 877 878 879 881 882 883 884 884 884 884 885 884 884 884 883 883 882 882 881 881 880 879 878 878 877 876 875 873 871 870 870 870 870 870 869 868 868 867 866 865 864 863 862 861 860 859 858 856 855 854 852 850 848 847 846 844 843 841 839 837 836 834 833 831 830 828 827 826 826 826 825
854 856 858 860 863 865 867 869 871 872 874 875 876 877 878 878 879 881 883 884 885 886 886 886 886 886 886 885 885 884 884 883 883 882 881 881 880 879 878 877 876 874 873 872 872 872 872 872 871 870 870 869 868 867 866 865 864 863 862 861 860 859 858 856 854 852 851 850 849 847 846 844 842 841 839 838 836 835 833 832 831 830 830 829 829
855 857 859 861 863 866 868 870 871 873 874 876 877 878 878 879 880 882 883 884 885 886 887 888 887 887 887 886 886 886 885 884 884 884 883 882 882 880 879 878 878 877 876 875 875 874 874 874 873 872 872 871 870 869 868 867 866 865 864 863 862 861 859 858 856 855 853 852 851 849 848 847 845 844 842 841 840 838 837 836 835 834 833 833 832
856 858 861 863 865 866 869 871 872 874 875 876 877 878 879 880 882 883 884 885 886 887 888 888 888 888 888 887 887 887 886 886 885 885 884 884 883 881 881 880 879 879 878 877 877 876 876 875 875 874 873 872 872 871 870 869 868 867 865 864 863 862 860 859 858 857 855 854 853 852 850 849 847 846 845 844 843 841 840 839 838 837 837 836 835
857 859 861 863 865 867 869 871 873 874 875 877 878 879 880 881 883 884 885 886 887 887 888 889 889 889 889 888 888 888 887 887 887 886 886 885 884 883 882 882 881 881 880 880 879 878 878 877 876 875 874 874 873 872 871 870 869 868 867 866 865 863 862 861 859 858 857 856 855 853 852 851 850 848 847 847 846 844 843 842 841 840 839 838 837
857 859 861 863 866 868 870 871 873 875 876 877 878 880 881 882 883 885 886 886 887 888 888 889 889 889 889 889 888 888 888 888 887 887 887 886 885 885 884 884 883 882 882 881 881 880 879 879 877 876 876 875 874 873 872 871 870 869 868 867 866 865 863 862 861 859 858 857 856 855 854 853 852 850 850 849 848 847 846 845 843 842 841 841 840
858 860 862 864 866 868 870 872 873 875 876 878 879 880 881 883 884 885 886 887 887 888 888 889 889 889 889 889 889 888 888 888 888 888 888 887 886 886 885 885 884 884 883 883 882 881 881 880 879 878 877 876 875 875 874 873 872 870 869 868 867 866 864 863 862 860 859 858 857 857 856 855 853 852 852 851 850 849 848 847 846 845 844 843 843
859 861 863 865 867 868 870 872 874 875 876 878 879 880 882 883 884 885 886 887 887 888 888 888 888 888 888 888 888 888 888 888 888 888 888 887 887 887 886 886 885 885 884 884 883 883 882 881 880 879 879 878 877 876 875 874 873 871 870 869 868 867 866 864 863 862 861 860 859 858 857 856 855 854 853 852 851 851 850 849 848 847 846 845 845
859 861 863 865 867 868 870 872 873 875 876 877 879 880 881 882 884 885 885 886 887 887 888 888 888 888 888 888 888 888 888 888 888 888 888 887 887 887 886 886 886 885 885 884 884 883 883 882 881 881 880 879 878 877 876 875 874 873 872 870 869 868 867 866 864 863 862 861 860 859 858 857 856 855 854 853 853 852 851 851 850 849 848 847 847
858 860 863 865 867 868 870 872 873 874 876 877 878 880 881 882 883 884 885 886 886 887 887 887 887 887 887 887 887 887 887 887 888 887 887 887 887 886 886 886 885 885 885 884 884 883 883 882 882 881 880 880 879 878 877 876 875 874 873 872 870 869 868 867 866 864 863 862 861 859 858 858 857 856 855 854 854 853 852 852 851 850 850 849 848
858 860 862 864 866 868 870 871 873 874 875 877 878 879 881 882 883 883 884 885 885 886 886 886 886 886 886 886 886 887 887 887 887 887 886 886 886 886 886 885 885 884 884 884 883 883 882 882 882 881 880 880 879 878 877 877 876 875 874 873 871 870 869 868 866 865 864 863 861 860 859 858 857 857 856 855 854 854 853 852 852 851 851 850 849
857 860 862 864 866 868 869 871 872 873 875 876 878 879 880 881 882 883 883 884 884 885 885 885 885 885 885 885 885 885 886 886 886 886 886 885 885 885 885 884 884 884 883 883 883 882 882 881 881 881 880 879 879 878 877 877 876 875 874 873 872 871 870 868 867 866 864 863 862 861 860 859 857 857 856 856 855 855 854 853 853 852 852 851 850
857 859 861 863 865 867 868 870 871 873 874 876 877 878 879 880 881 881 882 883 883 883 884 884 884 884 884 884 884 884 884 884 884 884 884 884 884 884 883 883 883 882 882 882 882 881 881 881 880 880 879 879 878 878 877 876 876 875 874 873 872 871 870 869 868 866 865 864 862 861 860 859 858 857 857 856 855 855 855 854 853 853 852 852 851
856 858 860 862 864 866 867 869 870 871 873 874 875 877 878 879 879 880 881 881 882 882 882 882 882 882 882 883 882 882 882 883 883 882 882 883 882 882 882 882 881 881 881 880 880 880 879 879 879 878 878 878 877 877 876 876 875 874 874 873 872 871 870 869 868 867 866 864 863 862 860 859 858 857 856 856 856 855 855 854 854 853 853 852 851
855 857 859 861 863 865 866 868 869 870 872 873 874 875 876 877 878 879 879 879 880 880 880 880 880 880 880 880 880 880 880 881 881 881 881 881 881 880 880 880 880 879 879 879 878 878 878 878 877 877 876 876 876 875 875 875 874 873 873 872 872 871 870 869 868 867 866 865 864 862 861 860 859 858 857 856 856 855 855 854 854 853 853 852 851
854 856 858 860 862 864 865 866 868 869 870 871 872 873 874 875 876 877 877 878 878 878 878 879 878 878 878 878 878 878 878 878 879 879 879 879 879 878 878 878 878 878 877 877 877 876 876 876 875 875 875 874 874 874 873 873 872 872 871 871 870 870 869 869 868 867 866 865 864 863 861 860 859 858 857 856 855 855 855 854 854 853 853 852 851
854 855 857 859 861 862 864 865 866 867 868 869 870 871 872 873 874 875 875 876 876 876 876 876 876 876 876 876 876 876 876 876 877 877 877 877 876 876 876 876 876 876 875 875 875 874 874 874 873 873 873 872 872 872 871 871 870 870 869 869 869 868 868 867 867 866 865 865 864 863 862 860 859 858 857 856 855 855 854 854 853 853 853 852 851
853 854 856 858 859 861 862 863 864 866 866 867 868 869 870 871 872 872 873 873 873 874 874 874 874 874 874 874 874 874 874 874 875 874 874 874 874 874 874 874 873 873 873 873 872 872 872 872 871 871 871 870 870 870 869 869 868 868 867 867 867 866 866 866 865 865 864 863 863 862 861 860 859 858 857 856 855 854 854 853 853 852 852 851 851
851 853 855 856 858 859 860 861 862 864 865 865 866 867 868 869 869 870 870 871 871 871 871 871 871 871 871 872 872 872 872 872 872 872 872 872 872 871 871 871 871 871 871 870 870 870 869 869 869 868 868 868 868 867 867 866 866 865 865 865 864 864 864 864 863 863 862 862 861 861 860 859 858 858 857 856 855 854 853 852 852 851 851 850 850